Cloud_Cover
0 0 0 0 0 0 0 0 0 0 0 0 0 3 40 35 57 5 7 9 8 5 5 5 6 10 1 0 0 0 0 0 0 4 99 9 20 5 6 100 9 5 2 0 0 0 0 0 5
0 0 0 0 0 0 0 0 0 0 0 0 0 14 63 93 24 40 61 97 79 72 13 5 56 28 9 7 0 0 0 0 0 0 7 2 96 94 61 86 4 3 0 0 0 0 0 0 0
0 0 0 0 0 0 0 0 0 0 0 0 0 0 78 10 82 97 86 81 100 100 100 45 7 15 28 20 26 0 0 0 0 0 96 98 99 6 17 56 86 27 5 11 9 23 5 0 0
0 0 0 0 0 0 0 0 0 0 0 0 0 1 5 75 88 71 100 100 100 100 100 100 91 69 58 73 18 25 2 0 0 0 22 100 100 32 60 5 8 100 74 60 100 20 5 2 1
0 0 0 0 0 0 0 0 0 0 0 0 0 0 3 32 41 94 98 100 100 100 100 100 100 100 96 68 30 41 15 8 0 0 0 99 99 87 50 0 5 99 100 98 20 11 61 10 2
0 0 0 0 0 0 0 0 0 0 0 0 0 0 0 5 4 5 3 93 100 100 100 100 100 100 100 100 100 100 26 5 2 0 1 2 4 4 0 3 6 8 82 100 100 100 19 5 5
0 0 0 0 0 0 0 0 0 0 0 0 0 0 0 0 1 3 5 3 100 96 100 100 100 100 100 100 100 100 100 92 37 5 5 5 85 95 4 8 85 100 100 100 99 100 5 9 16
0 0 0 0 0 0 0 0 0 0 0 0 0 0 0 0 0 0 0 0 98 100 100 100 100 100 100 100 100 100 100 100 100 36 15 22 24 23 88 100 67 81 99 79 6 9 5 5 0
0 0 0 0 0 0 0 0 0 0 0 0 0 0 0 0 0 0 0 4 24 79 79 100 100 100 100 100 100 100 100 100 100 100 100 100 100 98 100 100 90 14 21 9 5 6 36 5 5
0 6 0 0 0 0 0 0 0 0 0 0 0 0 0 0 0 0 0 0 16 26 85 98 100 98 100 100 100 100 100 100 100 100 100 100 100 43 46 70 74 68 89 78 70 59 10 5 2
0 0 0 0 0 0 0 0 0 0 0 0 0 0 0 0 0 0 0 0 1 4 57 82 100 100 100 96 100 100 100 100 100 100 100 100 100 35 43 64 86 100 99 99 79 14 22 5 4
0 0 0 0 0 0 0 0 0 0 0 0 0 0 0 0 0 0 0 0 1 53 83 68 100 100 100 82 77 93 100 64 68 6 52 70 100 100 51 71 73 60 88 46 5 5 5 5 5
0 0 0 0 0 0 0 0 0 0 0 0 0 0 0 0 0 0 0 0 0 4 77 100 100 100 100 100 69 59 72 70 48 5 5 67 79 91 87 100 97 76 40 5 5 5 5 5 5
34 0 0 0 0 0 0 0 0 0 0 0 0 0 0 0 0 0 0 0 0 0 1 9 66 100 100 91 100 99 90 85 60 77 5 12 94 100 99 100 100 46 56 7 5 9 5 8 6
99 8 0 0 0 0 0 0 0 0 0 0 0 0 0 0 0 0 0 0 0 0 0 0 0 56 67 54 38 20 16 58 24 31 95 99 100 100 100 72 41 98 59 76 5 8 5 5 5
100 97 5 0 0 0 0 0 0 0 0 0 0 0 0 0 0 0 0 0 0 0 0 0 0 15 54 39 33 27 47 94 100 100 100 100 100 100 100 100 100 100 100 74 40 42 5 4 0
100 100 98 5 5 0 0 0 0 0 0 0 0 0 0 0 0 0 0 0 0 1 1 0 0 15 63 45 32 27 100 100 100 100 100 100 100 100 100 100 100 100 100 100 100 56 32 5 5
74 100 100 84 30 5 0 0 0 0 0 0 0 0 0 0 0 0 0 0 0 0 0 0 11 64 48 25 46 100 100 100 100 100 100 100 100 100 100 100 100 100 100 100 64 44 43 60 5
25 18 61 100 58 46 3 0 0 0 0 0 0 0 0 0 0 0 0 0 0 0 0 8 100 61 18 48 46 85 100 100 100 100 100 100 100 99 100 100 100 100 100 95 53 62 88 5 0
28 36 67 96 76 5 3 0 0 1 0 0 0 0 0 0 0 0 0 0 0 0 2 100 89 26 4 6 0 1 72 100 100 100 100 100 100 73 66 100 100 100 99 85 5 5 2 0 0
100 100 98 96 80 5 4 4 2 4 4 0 0 0 0 0 0 0 0 0 0 0 13 100 48 24 28 39 1 4 100 100 100 100 100 100 85 75 62 76 97 65 95 68 5 5 5 5 0
100 24 19 5 63 79 3 3 0 0 3 1 0 0 0 0 0 0 0 0 0 0 10 100 51 27 60 74 5 11 83 46 99 100 100 92 5 34 61 92 5 66 68 5 5 16 5 5 0
35 5 5 5 57 92 60 97 0 25 70 18 0 0 0 0 0 0 0 0 0 0 0 43 60 64 65 82 66 17 100 97 93 100 100 0 4 5 5 5 9 85 30 5 5 5 5 0 0
58 67 81 37 74 97 5 66 0 1 66 55 5 4 0 0 0 0 0 0 1 3 4 0 49 98 100 96 100 83 100 100 100 100 36 0 0 4 1 5 79 67 25 5 25 5 0 0 0
23 100 97 100 100 49 34 51 0 0 0 40 20 5 5 0 0 0 0 0 5 6 5 0 0 41 99 25 95 100 100 99 88 25 0 0 1 1 4 6 70 11 5 19 19 0 0 0 0
61 67 98 100 85 39 65 30 0 0 3 1 100 63 5 0 0 0 0 0 5 18 5 0 5 0 88 16 99 100 100 44 100 2 0 5 1 2 5 5 6 5 4 3 0 0 0 0 0
96 99 7 100 100 100 20 0 0 0 0 0 94 100 48 2 5 0 0 0 6 5 10 5 5 0 4 100 100 100 100 100 58 5 5 5 4 5 5 5 5 5 5 5 0 0 0 0 0
17 94 95 100 100 100 14 1 0 0 0 0 91 100 100 5 5 5 5 0 5 5 5 5 5 4 96 100 100 100 99 46 22 63 10 5 5 5 5 5 5 5 5 5 5 0 0 0 1
95 100 100 100 100 100 45 2 0 0 0 0 9 100 100 1 6 5 5 3 24 7 5 5 16 93 100 100 88 22 5 72 94 92 77 76 34 5 57 5 5 5 5 5 5 1 5 5 5
100 100 100 100 100 100 80 9 3 1 0 4 72 100 100 5 0 5 5 5 5 5 5 79 100 100 100 86 5 5 49 91 66 76 88 100 41 70 56 15 5 5 5 5 5 5 5 5 5